ABR243B EGBB-EIDW

Flight info

Callsign ABR243B
Flight time 0h 50m
Altitude 28000
Route LUVUM DCT NANTI Y53 WAL L10 PENIL M144 BAGSO BAGSO4L
Aircraft B738/M-SDE2E3FGHIRWXY/LB1

Departure

Time 2026-05-07 16:42
Airport Birmingham Airport (EGBB)

Arrival

Time 2026-05-07 17:33
Airport Dublin Airport (EIDW)
Time Latitude Longitude Altitude Speed Heading
2026-05-07 16:30 52.45172 -1.75014 323 ft 0 kts 237°
2026-05-07 16:34 52.45169 -1.75022 323 ft 3 kts 239°
2026-05-07 16:34 52.45168 -1.75072 324 ft 5 kts 284°
2026-05-07 16:34 52.45193 -1.75116 325 ft 6 kts 326°
2026-05-07 16:35 52.45238 -1.75142 327 ft 8 kts
2026-05-07 16:35 52.45278 -1.75075 323 ft 9 kts 58°
2026-05-07 16:35 52.45315 -1.74982 324 ft 10 kts 57°
2026-05-07 16:35 52.45357 -1.74874 322 ft 12 kts 57°
2026-05-07 16:36 52.45401 -1.74763 325 ft 11 kts 57°
2026-05-07 16:36 52.45445 -1.74651 323 ft 10 kts 57°
2026-05-07 16:36 52.45495 -1.74604 322 ft 9 kts 348°
2026-05-07 16:36 52.45549 -1.74656 322 ft 10 kts 326°
2026-05-07 16:37 52.45619 -1.74733 316 ft 14 kts 326°
2026-05-07 16:37 52.45711 -1.74836 311 ft 16 kts 326°
2026-05-07 16:37 52.45792 -1.74926 308 ft 13 kts 326°
2026-05-07 16:37 52.45875 -1.75017 308 ft 14 kts 326°
2026-05-07 16:38 52.45956 -1.75108 308 ft 15 kts 326°
2026-05-07 16:38 52.46045 -1.75206 304 ft 16 kts 326°
2026-05-07 16:38 52.46137 -1.75309 302 ft 15 kts 326°
2026-05-07 16:38 52.46229 -1.75411 302 ft 16 kts 326°
2026-05-07 16:39 52.46317 -1.75509 301 ft 15 kts 326°
2026-05-07 16:39 52.46407 -1.75609 302 ft 15 kts 326°
2026-05-07 16:39 52.46483 -1.75693 303 ft 13 kts 325°
2026-05-07 16:39 52.46556 -1.75775 305 ft 13 kts 326°
2026-05-07 16:40 52.46620 -1.75847 308 ft 9 kts 319°
2026-05-07 16:40 52.46626 -1.75936 305 ft 9 kts 243°
2026-05-07 16:40 52.46588 -1.76032 304 ft 9 kts 236°
2026-05-07 16:40 52.46556 -1.76089 304 ft 6 kts 197°
2026-05-07 16:41 52.46525 -1.76067 307 ft 3 kts 145°
2026-05-07 16:41 52.46513 -1.76053 307 ft 2 kts 145°
2026-05-07 16:41 52.46501 -1.76041 307 ft 2 kts 147°
2026-05-07 16:41 52.46490 -1.76028 310 ft 2 kts 147°
2026-05-07 16:42 52.46411 -1.75941 307 ft 41 kts 145°
2026-05-07 16:42 52.45967 -1.75447 313 ft 111 kts 146°
2026-05-07 16:42 52.45177 -1.74561 423 ft 156 kts 146°
2026-05-07 16:42 52.44291 -1.73612 1209 ft 155 kts 145°
2026-05-07 16:43 52.43342 -1.72596 1873 ft 165 kts 144°
2026-05-07 16:43 52.42387 -1.71543 2574 ft 171 kts 143°
2026-05-07 16:43 52.41415 -1.70392 3297 ft 175 kts 142°
2026-05-07 16:43 52.40568 -1.68915 3874 ft 188 kts 114°
2026-05-07 16:44 52.40356 -1.66762 4456 ft 195 kts 82°
2026-05-07 16:44 52.40691 -1.64635 5292 ft 193 kts 73°
2026-05-07 16:44 52.41162 -1.62546 5932 ft 201 kts 56°
2026-05-07 16:44 52.42143 -1.60892 6233 ft 208 kts 31°
2026-05-07 16:45 52.43514 -1.60011 6634 ft 219 kts
2026-05-07 16:45 52.45038 -1.59530 6904 ft 225 kts
2026-05-07 16:45 52.46613 -1.59450 6871 ft 236 kts 354°
2026-05-07 16:45 52.48334 -1.59695 6846 ft 261 kts 353°
2026-05-07 16:46 52.50097 -1.59937 6860 ft 269 kts 354°
2026-05-07 16:46 52.51930 -1.60534 6845 ft 269 kts 337°
2026-05-07 16:46 52.53634 -1.61778 6855 ft 268 kts 334°
2026-05-07 16:46 52.55333 -1.63046 6849 ft 268 kts 335°
2026-05-07 16:47 52.57007 -1.64277 6850 ft 268 kts 335°
2026-05-07 16:47 52.58707 -1.65513 6841 ft 267 kts 335°
2026-05-07 16:47 52.60400 -1.66734 6842 ft 265 kts 335°
2026-05-07 16:47 52.60736 -1.66976 6845 ft 265 kts 335°
2026-05-07 16:48 52.61717 -1.67683 6847 ft 264 kts 335°
2026-05-07 16:48 52.63320 -1.68837 6827 ft 264 kts 335°
2026-05-07 16:48 52.63324 -1.68840 6829 ft 264 kts 335°
2026-05-07 16:49 52.63595 -1.69035 6829 ft 264 kts 335°
2026-05-07 16:49 52.65233 -1.70208 6932 ft 250 kts 335°
2026-05-07 16:49 52.66819 -1.71352 6851 ft 248 kts 335°
2026-05-07 16:49 52.68449 -1.72531 6840 ft 265 kts 335°
2026-05-07 16:50 52.70142 -1.73755 6845 ft 272 kts 335°
2026-05-07 16:50 52.71761 -1.75302 6820 ft 268 kts 316°
2026-05-07 16:50 52.73005 -1.77566 6840 ft 265 kts 310°
2026-05-07 16:50 52.74204 -1.79868 6846 ft 264 kts 310°
2026-05-07 16:51 52.75397 -1.82171 6846 ft 264 kts 310°
2026-05-07 16:51 52.76589 -1.84471 6857 ft 263 kts 310°
2026-05-07 16:51 52.77784 -1.86774 6843 ft 264 kts 310°
2026-05-07 16:51 52.78979 -1.89077 6840 ft 264 kts 310°
2026-05-07 16:52 52.80172 -1.91374 6849 ft 263 kts 310°
2026-05-07 16:52 52.81349 -1.93639 6854 ft 263 kts 310°
2026-05-07 16:52 52.82542 -1.95938 6848 ft 264 kts 310°
2026-05-07 16:52 52.83740 -1.98247 6846 ft 265 kts 310°
2026-05-07 16:53 52.84938 -2.00555 6841 ft 265 kts 310°
2026-05-07 16:53 52.86135 -2.02864 6848 ft 264 kts 310°
2026-05-07 16:53 52.87334 -2.05177 6843 ft 265 kts 310°
2026-05-07 16:53 52.88532 -2.07491 6844 ft 265 kts 310°
2026-05-07 16:54 52.89731 -2.09809 6849 ft 265 kts 310°
2026-05-07 16:54 52.90931 -2.12133 6842 ft 265 kts 310°
2026-05-07 16:54 52.92132 -2.14457 6850 ft 266 kts 310°
2026-05-07 16:54 52.93317 -2.16754 6842 ft 266 kts 310°
2026-05-07 16:55 52.94520 -2.19089 6854 ft 267 kts 310°
2026-05-07 16:55 52.95737 -2.21454 7266 ft 272 kts 310°
2026-05-07 16:55 52.96958 -2.23826 8196 ft 270 kts 310°
2026-05-07 16:55 52.98179 -2.26202 9010 ft 273 kts 310°
2026-05-07 16:56 52.99425 -2.28629 9762 ft 278 kts 310°
2026-05-07 16:56 53.00689 -2.31095 10427 ft 286 kts 310°
2026-05-07 16:56 53.03462 -2.36513 10792 ft 332 kts 310°
2026-05-07 16:57 53.04995 -2.39510 11174 ft 346 kts 310°
2026-05-07 16:57 53.06571 -2.42597 11830 ft 352 kts 310°
2026-05-07 16:57 53.08155 -2.45703 12624 ft 353 kts 309°
2026-05-07 16:57 53.09748 -2.48828 13382 ft 356 kts 309°
2026-05-07 16:58 53.11359 -2.51993 14069 ft 361 kts 309°
2026-05-07 16:58 53.12988 -2.55199 14765 ft 364 kts 309°
2026-05-07 16:58 53.14596 -2.58463 15501 ft 366 kts 307°
2026-05-07 16:58 53.16148 -2.61859 16175 ft 370 kts 306°
2026-05-07 16:59 53.17690 -2.65319 16855 ft 374 kts 306°
2026-05-07 16:59 53.19229 -2.68769 17521 ft 378 kts 306°
2026-05-07 16:59 53.20810 -2.72296 18198 ft 382 kts 306°
2026-05-07 16:59 53.22411 -2.75856 18802 ft 385 kts 306°
2026-05-07 17:00 53.24026 -2.79447 19389 ft 388 kts 306°
2026-05-07 17:00 53.25653 -2.83070 19978 ft 391 kts 306°
2026-05-07 17:00 53.27288 -2.86719 20557 ft 394 kts 306°
2026-05-07 17:00 53.28937 -2.90402 21113 ft 397 kts 306°
2026-05-07 17:01 53.30597 -2.94117 21653 ft 401 kts 306°
2026-05-07 17:01 53.32271 -2.97869 22191 ft 404 kts 306°
2026-05-07 17:01 53.33954 -3.01648 22719 ft 407 kts 306°
2026-05-07 17:01 53.35631 -3.05415 23240 ft 410 kts 306°
2026-05-07 17:02 53.37338 -3.09256 23709 ft 413 kts 306°
2026-05-07 17:02 53.39059 -3.13135 24128 ft 416 kts 306°
2026-05-07 17:02 53.40769 -3.17057 24571 ft 418 kts 305°
2026-05-07 17:02 53.42462 -3.21020 24985 ft 420 kts 305°
2026-05-07 17:03 53.44159 -3.25023 25391 ft 422 kts 305°
2026-05-07 17:03 53.45862 -3.29048 25780 ft 424 kts 305°
2026-05-07 17:03 53.47576 -3.33099 26181 ft 426 kts 305°
2026-05-07 17:03 53.49275 -3.37112 26553 ft 429 kts 305°
2026-05-07 17:04 53.51007 -3.41202 26916 ft 431 kts 306°
2026-05-07 17:04 53.52749 -3.45323 27274 ft 433 kts 306°
2026-05-07 17:04 53.54491 -3.49447 27772 ft 432 kts 306°
2026-05-07 17:04 53.56228 -3.53568 27974 ft 434 kts 306°
2026-05-07 17:05 53.57973 -3.57713 27980 ft 432 kts 306°
2026-05-07 17:05 53.59633 -3.61883 27974 ft 426 kts 300°
2026-05-07 17:05 53.60850 -3.66337 27990 ft 424 kts 291°
2026-05-07 17:05 53.61698 -3.71103 27986 ft 427 kts 284°
2026-05-07 17:06 53.62098 -3.76071 27986 ft 429 kts 275°
2026-05-07 17:06 53.62271 -3.81094 27977 ft 428 kts 275°
2026-05-07 17:06 53.62428 -3.86000 27965 ft 410 kts 275°
2026-05-07 17:06 53.62601 -3.90707 27970 ft 398 kts 275°
2026-05-07 17:07 53.62788 -3.95361 27985 ft 400 kts 276°
2026-05-07 17:07 53.62982 -4.00065 27993 ft 405 kts 275°
2026-05-07 17:07 53.63172 -4.04816 27998 ft 408 kts 275°
2026-05-07 17:07 53.63356 -4.09516 27976 ft 406 kts 275°
2026-05-07 17:08 53.63538 -4.14261 27979 ft 405 kts 275°
2026-05-07 17:08 53.63718 -4.18978 27888 ft 399 kts 275°
2026-05-07 17:08 53.63894 -4.23612 27369 ft 396 kts 275°
2026-05-07 17:08 53.64069 -4.28255 26639 ft 399 kts 275°
2026-05-07 17:09 53.64244 -4.32938 25930 ft 401 kts 275°
2026-05-07 17:09 53.64417 -4.37631 25239 ft 402 kts 274°
2026-05-07 17:09 53.64589 -4.42346 24567 ft 404 kts 274°
2026-05-07 17:09 53.64756 -4.47010 23912 ft 404 kts 274°
2026-05-07 17:10 53.64924 -4.51729 23187 ft 404 kts 274°
2026-05-07 17:10 53.65089 -4.56452 22431 ft 403 kts 274°
2026-05-07 17:10 53.65252 -4.61159 21679 ft 402 kts 274°
2026-05-07 17:10 53.65414 -4.65857 20945 ft 401 kts 273°
2026-05-07 17:11 53.65573 -4.70540 20233 ft 399 kts 273°
2026-05-07 17:11 53.65731 -4.75202 19534 ft 398 kts 273°
2026-05-07 17:11 53.65886 -4.79844 18852 ft 396 kts 273°
2026-05-07 17:11 53.66038 -4.84462 18174 ft 394 kts 272°
2026-05-07 17:12 53.66185 -4.88994 17420 ft 391 kts 272°
2026-05-07 17:12 53.66333 -4.93562 16677 ft 389 kts 272°
2026-05-07 17:12 53.66479 -4.98097 15953 ft 386 kts 272°
2026-05-07 17:12 53.66623 -5.02607 15236 ft 384 kts 272°
2026-05-07 17:13 53.66764 -5.07079 14547 ft 381 kts 272°
2026-05-07 17:13 53.66903 -5.11524 13865 ft 378 kts 272°
2026-05-07 17:13 53.67038 -5.15942 13119 ft 376 kts 272°
2026-05-07 17:13 53.67167 -5.20328 12375 ft 373 kts 272°
2026-05-07 17:14 53.67291 -5.24625 11663 ft 371 kts 272°
2026-05-07 17:14 53.67415 -5.28956 10955 ft 368 kts 272°
2026-05-07 17:14 53.67537 -5.33254 10379 ft 364 kts 272°
2026-05-07 17:14 53.67654 -5.37430 10178 ft 348 kts 272°
2026-05-07 17:15 53.67766 -5.41419 10041 ft 333 kts 272°
2026-05-07 17:15 53.67871 -5.45239 9965 ft 318 kts 272°
2026-05-07 17:15 53.67969 -5.48872 9927 ft 303 kts 272°
2026-05-07 17:15 53.68063 -5.52349 9840 ft 291 kts 272°
2026-05-07 17:16 53.68152 -5.55691 9737 ft 280 kts 272°
2026-05-07 17:16 53.68236 -5.58861 9655 ft 269 kts 272°
2026-05-07 17:16 53.68317 -5.61961 9516 ft 261 kts 272°
2026-05-07 17:16 53.68258 -5.64993 9178 ft 260 kts 256°
2026-05-07 17:17 53.67504 -5.67742 8837 ft 260 kts 234°
2026-05-07 17:17 53.66331 -5.70054 8548 ft 259 kts 229°
2026-05-07 17:17 53.65132 -5.72302 8245 ft 257 kts 229°
2026-05-07 17:17 53.63940 -5.74550 7940 ft 256 kts 229°
2026-05-07 17:18 53.62691 -5.76673 7648 ft 256 kts 216°
2026-05-07 17:18 53.62593 -5.76790 7610 ft 256 kts 215°
2026-05-07 17:18 53.61019 -5.78150 7350 ft 256 kts 207°
2026-05-07 17:18 53.59408 -5.79411 7107 ft 255 kts 207°
2026-05-07 17:19 53.57803 -5.80670 6814 ft 254 kts 207°
2026-05-07 17:19 53.56207 -5.81929 6543 ft 253 kts 207°
2026-05-07 17:19 53.54616 -5.83189 6225 ft 253 kts 207°
2026-05-07 17:19 53.53024 -5.84453 5885 ft 254 kts 207°
2026-05-07 17:20 53.51428 -5.85721 5544 ft 254 kts 207°
2026-05-07 17:20 53.49830 -5.86993 5211 ft 254 kts 207°
2026-05-07 17:20 53.48252 -5.88248 4886 ft 255 kts 207°
2026-05-07 17:20 53.46650 -5.89522 4546 ft 254 kts 207°
2026-05-07 17:21 53.45074 -5.90773 4190 ft 247 kts 206°
2026-05-07 17:21 53.43537 -5.91993 3858 ft 243 kts 206°
2026-05-07 17:21 53.42013 -5.93201 3508 ft 240 kts 206°
2026-05-07 17:21 53.40698 -5.94800 3130 ft 234 kts 235°
2026-05-07 17:22 53.40305 -5.97341 3041 ft 225 kts 271°
2026-05-07 17:22 53.40464 -5.99932 3012 ft 223 kts 276°
2026-05-07 17:22 53.40658 -6.02462 2999 ft 221 kts 275°
2026-05-07 17:22 53.40855 -6.04996 2983 ft 216 kts 277°
2026-05-07 17:23 53.41133 -6.07387 2970 ft 204 kts 289°
2026-05-07 17:23 53.41946 -6.09306 2706 ft 208 kts 311°
2026-05-07 17:23 53.42772 -6.11294 2365 ft 210 kts 286°
2026-05-07 17:23 53.42913 -6.13710 2035 ft 207 kts 267°
2026-05-07 17:24 53.42964 -6.16037 1863 ft 192 kts 273°
2026-05-07 17:24 53.43108 -6.18114 1839 ft 169 kts 284°
2026-05-07 17:24 53.43808 -6.19621 1708 ft 172 kts 330°
2026-05-07 17:24 53.45087 -6.20246 1721 ft 205 kts 353°
2026-05-07 17:25 53.46522 -6.20295 2159 ft 209 kts 358°
2026-05-07 17:25 53.47960 -6.20308 2812 ft 209 kts 358°
2026-05-07 17:25 53.49384 -6.19948 2934 ft 210 kts 25°
2026-05-07 17:25 53.50444 -6.18343 2969 ft 207 kts 63°
2026-05-07 17:26 53.50749 -6.16017 3005 ft 206 kts 94°
2026-05-07 17:26 53.50635 -6.13610 3000 ft 208 kts 98°
2026-05-07 17:26 53.50483 -6.11166 2997 ft 211 kts 98°
2026-05-07 17:26 53.50327 -6.08731 2999 ft 209 kts 98°
2026-05-07 17:27 53.50171 -6.06312 2996 ft 207 kts 98°
2026-05-07 17:27 53.50009 -6.03949 2988 ft 206 kts 103°
2026-05-07 17:27 53.49380 -6.01883 2988 ft 198 kts 141°
2026-05-07 17:27 53.48179 -6.00926 3014 ft 193 kts 174°
2026-05-07 17:28 53.46838 -6.00741 2987 ft 194 kts 178°
2026-05-07 17:28 53.45478 -6.00602 2853 ft 195 kts 178°
2026-05-07 17:28 53.44119 -6.00467 2810 ft 197 kts 178°
2026-05-07 17:28 53.42761 -6.00340 2794 ft 193 kts 182°
2026-05-07 17:29 53.41544 -6.01041 2791 ft 186 kts 225°
2026-05-07 17:29 53.41053 -6.02982 2785 ft 189 kts 265°
2026-05-07 17:29 53.41042 -6.05180 2564 ft 191 kts 267°
2026-05-07 17:29 53.41083 -6.07354 2315 ft 182 kts 271°
2026-05-07 17:30 53.41184 -6.09410 2071 ft 173 kts 272°
2026-05-07 17:30 53.41290 -6.11388 1838 ft 167 kts 272°
2026-05-07 17:30 53.41392 -6.13290 1614 ft 161 kts 272°
2026-05-07 17:30 53.41489 -6.15114 1422 ft 153 kts 272°
2026-05-07 17:31 53.41584 -6.16878 1190 ft 151 kts 272°
2026-05-07 17:31 53.41677 -6.18600 1022 ft 147 kts 272°
2026-05-07 17:31 53.41767 -6.20311 805 ft 148 kts 271°
2026-05-07 17:31 53.41854 -6.21989 581 ft 144 kts 272°
2026-05-07 17:32 53.41948 -6.23670 394 ft 146 kts 271°
2026-05-07 17:32 53.42042 -6.25355 219 ft 144 kts 272°
2026-05-07 17:32 53.42121 -6.26847 216 ft 108 kts 275°
2026-05-07 17:32 53.42162 -6.27563 214 ft 79 kts 276°
2026-05-07 17:33 53.42209 -6.28395 219 ft 44 kts 275°
2026-05-07 17:33 53.42229 -6.28783 210 ft 24 kts 275°
2026-05-07 17:33 53.42242 -6.29000 213 ft 13 kts 279°
2026-05-07 17:33 53.42309 -6.29076 209 ft 13 kts 353°
2026-05-07 17:34 53.42390 -6.29041 210 ft 12 kts 43°
2026-05-07 17:34 53.42410 -6.28904 218 ft 14 kts 95°
2026-05-07 17:34 53.42400 -6.28734 210 ft 15 kts 95°
2026-05-07 17:34 53.42390 -6.28556 210 ft 15 kts 95°
2026-05-07 17:35 53.42381 -6.28383 214 ft 15 kts 95°
2026-05-07 17:35 53.42372 -6.28218 214 ft 14 kts 95°
2026-05-07 17:35 53.42363 -6.28051 215 ft 15 kts 95°
2026-05-07 17:35 53.42353 -6.27872 214 ft 16 kts 95°
2026-05-07 17:36 53.42342 -6.27685 210 ft 16 kts 95°
2026-05-07 17:36 53.42332 -6.27499 210 ft 16 kts 95°
2026-05-07 17:36 53.42322 -6.27321 212 ft 15 kts 95°
2026-05-07 17:36 53.42312 -6.27143 213 ft 16 kts 95°
2026-05-07 17:37 53.42302 -6.26952 210 ft 17 kts 95°
2026-05-07 17:37 53.42292 -6.26763 210 ft 16 kts 95°
2026-05-07 17:37 53.42282 -6.26581 210 ft 15 kts 95°
2026-05-07 17:37 53.42272 -6.26407 214 ft 15 kts 95°
2026-05-07 17:38 53.42267 -6.26242 214 ft 14 kts 84°
2026-05-07 17:38 53.42304 -6.26096 212 ft 13 kts 53°
2026-05-07 17:38 53.42366 -6.25983 212 ft 13 kts 46°
2026-05-07 17:38 53.42418 -6.25892 213 ft 9 kts 45°
2026-05-07 17:39 53.42473 -6.25878 214 ft 9 kts 334°
2026-05-07 17:39 53.42499 -6.25959 217 ft 8 kts 278°
2026-05-07 17:39 53.42505 -6.26057 212 ft 8 kts 275°
2026-05-07 17:39 53.42509 -6.26135 210 ft 4 kts 275°
2026-05-07 17:40 53.42509 -6.26168 216 ft 3 kts 257°
2026-05-07 17:40 53.42489 -6.26188 216 ft 4 kts 197°
2026-05-07 17:40 53.42463 -6.26193 217 ft 4 kts 184°
2026-05-07 17:40 53.42441 -6.26196 210 ft 2 kts 185°
2026-05-07 17:41 53.42428 -6.26198 212 ft 1 kts 185°
2026-05-07 17:41 53.42426 -6.26198 212 ft 0 kts 185°